Location: Bannatyne
(13.0833°N, 59.5333°W)
Time: 11:57:16
(UTC+00:00)

Okean-O - Pass Details

Date: 18 October 2019
Orbit: 639 x 641 km, 98.2° (Epoch: 20 November)

Event Time Altitude Azimuth Distance (km) Brightness Sun altitude
Rises 22:07:10 0° 171° (S) 2,933 6.0 -8.0°
Reaches altitude 10° 22:09:23 10° 173° (S) 2,025 5.2 -8.5°
Maximum altitude 22:13:47 76° 258° (WSW) 662 2.9 -9.5°
Drops below altitude 10° 22:18:11 10° 344° (NNW) 2,027 5.3 -10.6°
Sets 22:20:24 0° 346° (NNW) 2,936 6.1 -11.1°
